Location: Bauersach School (historical)
(38.0926°N, 89.4806°W)
Time: 03:53:55
(UTC+00:00)

Cosmos 2333 Rocket - Pass Details

Date: 11 December 2025
Orbit: 838 x 865 km, 70.8° (Epoch: 21 January)

Event Time Altitude Azimuth Distance (km) Brightness Sun altitude
Exits shadow 12:29:47 - 322° (NW) 3,012 4.5 -6.9°
Reaches altitude 10° 12:31:17 10° 316° (NW) 2,505 4.1 -6.6°
Maximum altitude 12:36:11 30° 257° (WSW) 1,501 3.1 -5.8°
Drops below altitude 10° 12:41:04 10° 198° (SSW) 2,479 4.8 -4.9°
Sets 12:43:46 0° 188° (S) 3,406 5.6 -4.4°
